FW4237 Weather Reports


time (UTC)temp
F
wind
direction
speed
knots
gust
knots
rain 1hr
in
rain 24hr
in
rain mn
in
humidity
%
barometer
mb
20260505051649 55 304 0.0 0.0 0.00 0.00 0.00 79 1012.1
20260505050644 55 304 0.9 0.9 0.00 0.00 0.00 79 1012.1
20260505041636 54 304 0.9 0.9 0.00 0.00 0.00 82 1012.4
20260505040636 55 304 0.0 0.0 0.00 0.00 0.00 81 1012.1
20260505035636 55 304 0.9 0.9 0.00 0.00 0.00 80 1012.1
20260505034634 55 304 1.7 1.7 0.00 0.00 0.00 80 1012.1
20260505033634 55 303 0.9 1.7 0.00 0.00 0.00 80 1012.4
20260505032630 56 303 0.0 0.0 0.00 0.00 0.00 79 1012.4
20260505031630 57 303 0.9 0.9 0.00 0.00 0.00 78 1012.4
20260505030629 57 303 0.9 0.9 0.00 0.00 0.00 78 1012.1
20260505025626 58 303 0.0 0.9 0.00 0.00 0.00 76 1012.1
20260505024622 59 303 1.7 1.7 0.00 0.00 0.00 73 1012.4
20260505023622 60 303 0.9 0.9 0.00 0.00 0.00 73 1012.1
20260505022622 62 303 0.0 0.9 0.00 0.00 0.00 68 1012.4
20260505021621 61 303 0.9 0.9 0.00 0.00 0.00 69 1012.4
20260505020619 62 302 0.9 0.9 0.00 0.00 0.00 66 1012.1
20260505015619 62 294 3.5 4.3 0.00 0.00 0.00 67 1012.1
20260505014618 59 309 0.9 0.9 0.00 0.00 0.00 75 1012.4
20260505013613 60 310 1.7 1.7 0.00 0.00 0.00 74 1012.1
20260505012608 59 308 1.7 1.7 0.00 0.00 0.00 77 1012.1
20260505011606 60 304 0.9 0.9 0.00 0.00 0.00 77 1011.8
20260505010604 58 325 4.3 5.2 0.00 0.00 0.00 78 1011.8
20260505005603 59 313 0.0 0.0 0.00 0.00 0.00 78 1011.8
20260505004603 60 313 0.9 0.9 0.00 0.00 0.00 78 1011.4
20260505003603 60 313 0.0 0.0 0.00 0.00 0.00 76 1011.4
20260505002601 61 313 0.0 0.0 0.00 0.00 0.00 74 1011.1
20260505001557 62 313 0.9 0.9 0.00 0.00 0.00 72 1011.1
20260505000557 64 314 0.9 1.7 0.00 0.00 0.00 71 1011.1
20260504235557 66 313 0.0 0.0 0.00 0.00 0.00 67 1011.1
20260504234556 69 313 0.9 0.9 0.00 0.00 0.00 62 1011.1
20260504233555 71 313 0.9 0.9 0.00 0.00 0.00 58 1011.1
20260504232555 73 324 0.9 1.7 0.00 0.00 0.00 49 1011.1
20260504231554 74 308 0.0 0.0 0.00 0.00 0.00 48 1011.1
20260504230553 75 51 2.6 2.6 0.00 0.00 0.00 46 1011.1
20260504225549 75 259 1.7 1.7 0.00 0.00 0.00 46 1011.1
20260504224548 77 276 0.9 0.9 0.00 0.00 0.00 45 1011.1
20260504223548 76 273 0.9 0.9 0.00 0.00 0.00 44 1011.1
20260504222547 76 268 0.9 1.7 0.00 0.00 0.00 45 1011.1
20260504221547 78 266 0.9 1.7 0.00 0.00 0.00 45 1011.4
20260504220546 74 260 1.7 1.7 0.00 0.00 0.00 46 1011.4
20260504215545 75 274 0.0 0.9 0.00 0.00 0.00 46 1011.1
20260504214544 74 210 3.5 4.3 0.00 0.00 0.00 47 1011.4
20260504213543 74 237 2.6 2.6 0.00 0.00 0.00 47 1011.4
20260504212542 73 259 4.3 5.2 0.00 0.00 0.00 48 1011.4
20260504211542 74 289 2.6 4.3 0.00 0.00 0.00 46 1011.4
20260504210542 75 293 2.6 4.3 0.00 0.00 0.00 46 1011.1
20260504205542 73 257 4.3 5.2 0.00 0.00 0.00 47 1011.1
20260504204538 73 252 1.7 2.6 0.00 0.00 0.00 47 1011.1
20260504203534 74 271 1.7 2.6 0.00 0.00 0.00 45 1011.1
20260504202533 73 252 1.7 2.6 0.00 0.00 0.00 47 1011.4
20260504201533 74 290 3.5 5.2 0.00 0.00 0.00 42 1011.4
20260504200532 74 180 2.6 4.3 0.00 0.00 0.00 46 1011.4
20260504195531 75 255 2.6 4.3 0.00 0.00 0.00 44 1011.8
20260504194531 75 298 2.6 4.3 0.00 0.00 0.00 45 1011.4
20260504193529 74 196 3.5 6.1 0.00 0.00 0.00 45 1011.8
20260504192526 75 243 2.6 4.3 0.00 0.00 0.00 46 1011.8
20260504191521 74 113 3.5 4.3 0.00 0.00 0.00 44 1011.8
20260504190519 73 261 1.7 2.6 0.00 0.00 0.00 46 1012.1
20260504185518 73 186 2.6 6.1 0.00 0.00 0.00 46 1012.1
20260504184515 70 292 4.3 5.2 0.00 0.00 0.00 47 1012.1
20260504183514 71 270 2.6 4.3 0.00 0.00 0.00 49 1012.8
20260504182509 73 246 2.6 2.6 0.00 0.00 0.00 47 1012.8
20260504181509 71 285 1.7 1.7 0.00 0.00 0.00 47 1012.8
20260504180506 71 260 6.1 6.1 0.00 0.00 0.00 46 1012.8
20260504175501 73 226 4.3 5.2 0.00 0.00 0.00 45 1012.8
20260504174456 72 199 2.6 2.6 0.00 0.00 0.00 46 1012.8
20260504173455 72 254 6.1 7.8 0.00 0.00 0.00 44 1013.2
20260504172454 73 203 6.1 8.7 0.00 0.00 0.00 44 1013.2
20260504171454 73 282 4.3 6.1 0.00 0.00 0.00 44 1013.2
20260504170453 71 252 1.7 2.6 0.00 0.00 0.00 46 1013.2
20260504160442 68 308 0.9 0.9 0.00 0.00 0.00 46 1014.2
20260504150432 65 266 3.5 5.2 0.00 0.00 0.00 48 1014.9
20260504140423 62 264 2.6 2.6 0.00 0.00 0.00 53 1015.3
20260504130417 60 271 2.6 2.6 0.00 0.00 0.00 52 1014.9
20260504110345 45 304 0.0 0.0 0.00 0.00 0.00 84 1015.6
20260504100331 44 306 0.9 0.9 0.00 0.00 0.00 86 1015.6
20260504081308 45 305 0.0 0.0 0.00 0.00 0.00 88 1015.3
20260504080307 45 305 0.0 0.0 0.00 0.00 0.00 88 1015.3
20260504070252 46 305 0.0 0.0 0.00 0.00 0.00 86 1015.3
20260504060241 46 304 0.0 0.0 0.00 0.00 0.00 82 1015.6